アトラス彗星

C/2020 Y3 ( ATLAS )

English version
Home page
Updated on February 21, 2021

---------------------------------------------------------------------

・ プロフィール

発見日 2020年12月28日
発見光度 18.4等
発見者 Asteroid Terrestrial-Impact Last Alert System (ATLAS) search program

・ 写真集

・ 軌道要素

Epoch 2020 Dec. 17.0 TT = JDT 2459200.5
T 2020 Dec. 3.58688 TT                                  Rudenko
q   1.9999747            (2000.0)            P               Q
z  +0.0060027      Peri.  342.09514     -0.94000355     -0.27868241
 +/-0.0002455      Node   191.43363     -0.01845720     -0.53445582
e   0.9879948      Incl.   83.10240     -0.34066503     +0.79793050
From 123 observations 2020 Dec. 28-2021 Jan. 23, mean residual 0".6.

・ 光度変化

        m1 = 12.7 + 5 logΔ + 10.0 log r

---------------------------------------------------------------------

軌道要素はM.P.E.C. 2021-B143に掲載されたものです。
光度グラフはComet for Windowsで作成したものです。

---------------------------------------------------------------------

Copyright(C) Seiichi Yoshida (comet@aerith.net). All rights reserved.